Location: Arrodets-la-Barthe
(43.0306°N, 0.2829°E)
Time: 01:27:03
(UTC+00:00)

DUCHIFAT 1 - Pass Details

Date: 04 April 2023
Orbit: 567 x 581 km, 98.1° (Epoch: 29 May)

Event Time Altitude Azimuth Distance (km) Brightness Sun altitude
Rises 03:17:11 0° 13° (NNE) 2,788 ? -24.4°
Reaches altitude 10° 03:19:21 10° 13° (NNE) 1,883 ? -24.1°
Enters shadow 03:23:20 85° 16° (NNE) 577 ? -23.5°
